Tracking 32938 objects as of 13-Jan-2026
HD Live streaming from Space Station
objects crossing your sky now

TITAN 3C TRANSTAGE DEB

Track TITAN 3C TRANSTAGE DEB now!


NORAD ID: 43448
Int'l Code: 1969-013H
Perigee: 35,184.0 km
Apogee: 37,289.5 km
Inclination: 0.8 °
Period: 1,458.8 minutes
Semi major axis: 42607 km
RCS: Unknown
Launch date: February 9, 1969
Source: United States (US)
Launch site: AIR FORCE EASTERN TEST RANGE (AFETR)

Note: This is SATELLITE DEBRIS
Your satellite tracking list
Your tracking list is empty




NASA's NSSDC Master Catalog

Two Line Element Set (TLE):
1 43448U 69013H   26012.79434006 -.00000281  00000-0  00000+0 0  9997
2 43448   0.7918 117.9338 0247086  22.7680 221.1153  0.98712007 28003
Source of the keplerian elements: AFSPC